RH
24 23 22 22 21 20 20 19 19 18 17 17 16 15 15 14 12 10 8 7 7 5 5 6 6 7 7 7 7 7 7 7 7 6 6 6 6 5 5 6 8 11 13 19 25 31 40 42 42 41 38 36 36 40 45 48 52 54 55 63 65 61 59 54 51 52 54 50 48 48 47 51 49 42 40 38 39 42 44 47 48 47 47 49 48 47 49 49
25 24 24 23 22 21 21 20 20 19 19 18 17 17 16 15 14 13 11 9 8 7 6 6 6 6 6 7 7 7 7 6 6 6 6 7 6 5 6 6 7 8 12 19 22 29 39 40 41 39 37 36 34 39 44 47 52 52 55 62 62 61 59 53 52 52 51 49 48 48 46 50 51 45 42 41 40 37 38 41 43 44 45 49 50 49 50 50
26 26 25 24 24 23 22 21 20 20 19 19 18 18 17 16 15 14 13 11 9 8 7 6 6 6 6 7 7 7 7 6 6 6 7 7 6 5 6 5 6 6 9 15 17 24 33 36 38 37 35 35 34 38 43 46 50 49 53 61 60 59 58 54 53 53 53 50 47 47 47 48 49 47 45 46 44 40 39 37 37 41 43 47 48 47 49 52
25 25 25 25 24 24 23 22 21 21 20 19 19 18 18 17 16 15 15 13 12 10 8 8 6 6 6 6 7 7 7 7 7 7 7 7 6 6 6 5 6 6 8 13 15 20 27 33 36 34 33 33 33 37 40 44 49 49 49 56 60 58 56 55 54 53 53 50 49 49 48 48 49 47 46 50 50 47 46 42 38 39 42 45 46 45 46 51
23 23 23 23 23 23 23 23 22 22 21 21 20 19 19 18 18 17 16 15 14 12 10 9 8 7 6 6 7 6 7 8 8 7 7 7 6 6 5 5 6 6 9 14 15 18 23 29 32 32 30 31 33 35 38 42 46 48 45 49 58 60 58 57 53 52 51 50 51 50 48 49 48 44 44 51 52 50 49 45 39 38 38 41 44 46 44 46
21 21 21 21 21 21 21 22 22 22 22 21 21 20 20 19 19 18 17 16 15 14 12 10 9 8 7 6 6 6 7 8 8 8 8 7 7 6 5 6 5 8 13 14 14 17 20 24 27 29 29 30 32 33 36 40 43 45 45 47 54 59 60 59 53 51 50 49 50 49 48 48 45 42 41 46 52 50 49 44 38 37 37 39 45 46 44 43
19 19 19 19 19 19 19 19 20 20 20 21 21 21 21 20 19 19 19 17 16 15 14 12 10 9 8 7 6 6 7 7 7 9 10 9 8 7 6 5 5 10 15 14 14 17 19 20 22 26 27 29 32 33 35 38 39 42 45 48 52 56 58 58 53 50 49 47 47 48 47 45 42 44 42 43 50 47 46 45 40 40 39 38 43 46 43 42
18 18 18 18 18 18 18 18 18 18 18 19 20 21 21 21 20 19 19 18 18 17 15 14 12 10 8 7 7 7 6 6 7 8 9 9 9 7 7 6 6 11 14 12 13 16 18 19 19 22 24 27 32 34 36 37 38 40 42 46 49 53 55 55 52 50 49 46 45 44 42 42 42 44 43 42 45 41 41 45 42 43 43 40 41 43 42 41
16 17 17 17 17 17 17 17 17 17 17 17 18 19 21 22 21 20 19 19 18 17 16 15 13 12 9 7 8 7 5 6 7 7 7 8 8 7 7 7 7 11 13 11 12 13 16 18 18 19 21 27 33 34 34 36 38 40 40 43 45 48 52 52 50 48 47 44 43 42 39 41 41 40 41 39 39 37 39 44 44 45 46 43 41 40 40 40
14 15 15 15 16 16 16 16 16 16 16 16 16 17 19 21 21 21 20 19 19 18 17 16 14 13 10 8 8 6 4 7 8 8 7 7 7 7 7 8 8 11 12 11 11 11 13 16 18 19 20 26 32 32 32 33 36 39 38 40 41 43 49 50 49 46 44 42 41 41 40 40 39 38 39 37 36 36 38 42 44 45 46 45 41 39 39 39
10 11 12 12 13 14 14 15 15 15 15 15 15 16 17 19 21 21 21 20 19 18 17 16 14 13 11 10 9 6 5 7 7 8 8 7 7 7 8 8 9 11 12 12 11 10 11 13 17 19 19 23 28 29 30 30 33 36 35 37 37 39 45 48 48 45 42 41 41 40 40 38 37 37 38 37 37 37 38 41 44 45 45 45 42 40 39 39
8 8 8 9 9 10 11 13 14 14 14 14 14 14 16 18 21 22 21 21 19 18 17 16 15 15 13 12 10 7 6 6 6 7 8 7 8 10 11 10 10 12 13 12 11 11 10 11 15 19 18 20 25 28 28 29 30 31 32 33 35 35 39 44 45 44 40 41 41 39 39 37 36 37 37 37 38 38 38 40 42 43 45 45 43 43 40 38
8 8 7 7 7 7 8 9 11 12 12 13 13 13 15 18 21 22 22 22 21 20 18 17 17 17 16 15 11 7 7 6 5 6 8 8 10 12 12 13 13 14 14 12 11 11 11 11 14 17 19 20 24 27 27 28 28 28 29 31 34 33 35 40 42 42 40 40 39 39 39 37 36 38 37 38 40 40 39 40 40 40 42 44 45 46 44 40
8 8 7 7 7 7 7 7 8 9 10 10 11 13 15 18 20 20 21 22 23 22 20 19 19 18 18 16 12 8 7 6 5 6 7 8 10 11 12 15 15 14 14 12 12 12 12 12 12 15 20 20 22 25 25 27 29 28 29 30 32 33 33 37 38 40 40 38 37 39 40 37 38 40 38 38 41 42 42 42 41 40 40 42 44 46 47 43
8 8 8 8 7 7 7 7 7 8 9 9 9 12 15 16 18 19 20 22 24 24 22 21 20 21 20 16 13 10 7 7 6 7 8 8 10 11 13 16 15 15 14 12 13 13 13 13 12 15 22 21 21 24 22 26 28 28 29 28 30 31 32 34 35 38 38 35 36 39 39 36 37 41 39 39 41 41 42 44 43 43 43 43 43 45 48 46
8 8 8 8 8 7 7 7 7 7 8 8 8 12 13 14 16 18 19 21 25 25 25 25 23 22 22 17 14 13 10 8 6 7 9 9 10 10 13 16 16 15 14 12 13 14 14 13 13 17 23 21 20 21 21 23 25 26 28 27 28 29 31 33 33 36 36 33 35 39 39 37 37 41 41 39 40 40 41 44 44 45 46 45 45 46 48 49
8 7 7 7 7 7 8 7 7 7 8 8 9 11 12 13 14 16 18 20 24 26 27 27 25 24 22 18 16 15 13 11 8 8 8 9 10 10 13 16 15 14 13 12 13 14 14 13 15 19 22 20 18 20 20 20 22 24 26 26 27 28 30 32 31 33 35 33 34 37 39 37 36 40 41 38 40 41 41 44 45 45 47 47 47 47 47 49
7 7 7 7 7 7 7 7 7 7 7 8 9 10 11 12 12 15 18 21 23 26 27 28 28 28 24 19 17 16 14 13 11 9 8 8 9 11 13 14 15 13 12 13 13 15 15 15 18 19 19 18 17 18 18 18 19 21 23 24 26 27 31 33 31 31 33 32 32 35 38 37 36 38 40 39 38 40 40 42 43 44 46 49 51 50 47 48
8 8 7 7 6 6 6 7 7 7 8 8 8 10 12 12 12 16 23 25 23 23 23 26 27 26 22 21 20 18 17 15 14 12 10 9 9 10 12 13 14 14 12 13 14 15 15 17 21 19 16 15 15 15 15 16 17 18 20 23 25 27 30 33 33 30 30 31 31 32 36 37 36 37 40 39 37 38 38 38 40 42 45 50 52 50 47 47
8 7 7 7 7 6 7 6 6 7 8 8 9 11 13 14 13 16 20 20 18 17 17 20 24 24 23 22 21 19 19 17 15 13 12 11 9 10 13 13 14 14 12 13 14 15 15 17 20 17 14 13 13 13 14 14 15 16 17 20 23 26 28 32 33 31 30 31 31 31 32 35 36 34 37 39 37 37 37 37 38 40 45 49 51 50 47 46
8 8 7 7 6 6 6 6 7 7 8 9 12 13 16 16 13 14 17 14 13 14 15 16 18 22 24 23 22 21 20 19 17 14 13 12 11 11 13 13 14 14 13 13 14 15 15 16 16 14 12 13 13 12 13 13 13 14 16 17 21 24 26 30 32 31 31 31 30 29 29 32 35 34 35 38 38 36 36 37 36 39 45 47 49 51 47 46
9 9 8 7 6 6 6 6 7 7 9 13 15 15 18 19 16 17 19 16 13 13 14 14 15 18 21 23 24 23 21 20 18 17 16 13 12 12 13 13 13 14 14 14 15 16 16 14 13 12 12 12 12 12 12 12 11 13 14 15 18 20 23 28 29 30 33 33 30 29 29 30 35 35 34 35 37 36 35 35 35 39 44 45 47 52 49 47
10 9 9 8 7 6 6 6 7 7 10 15 16 16 17 18 18 19 20 18 14 12 12 13 14 15 18 21 23 23 22 21 19 19 19 16 13 13 13 13 13 14 15 15 15 16 15 13 12 11 11 11 12 13 12 11 11 11 11 12 13 16 20 24 27 30 33 33 31 29 28 28 32 33 32 33 36 36 34 34 33 36 41 44 46 49 49 47
11 10 9 8 7 7 6 6 8 8 12 15 16 17 16 15 16 18 21 18 13 12 12 12 12 13 15 18 21 22 22 22 20 19 19 17 14 14 14 14 14 14 15 15 15 15 14 12 12 11 11 12 12 13 12 10 10 9 9 9 11 13 16 20 25 27 30 31 31 29 28 27 30 32 32 32 34 35 34 33 33 34 38 41 44 44 44 43
11 10 9 8 8 7 6 10 11 10 13 15 15 15 14 14 14 17 20 18 13 12 11 11 12 12 13 15 18 21 22 22 21 20 19 18 16 15 15 15 14 15 14 15 15 14 13 12 13 12 11 13 13 12 10 10 9 8 8 8 9 11 13 16 21 24 27 31 32 31 29 26 27 31 32 32 34 36 35 33 33 34 35 35 40 43 42 41
11 10 9 8 8 6 8 13 12 10 14 15 14 12 12 13 13 17 21 17 13 11 10 11 12 12 12 14 16 19 21 20 20 21 19 19 17 16 17 17 16 15 14 15 15 14 12 12 14 13 12 14 13 10 9 10 9 7 7 8 8 9 11 13 17 20 23 28 31 32 30 26 26 30 32 33 36 37 35 33 32 34 34 34 39 43 41 40
10 10 8 8 8 7 9 12 11 12 15 14 12 11 12 12 13 20 23 16 12 12 11 12 13 12 13 13 14 18 20 19 20 21 19 19 18 17 18 18 17 15 15 15 15 14 13 13 14 15 14 14 12 10 9 10 9 7 7 8 9 8 9 11 14 16 18 22 27 28 27 26 24 26 29 31 35 38 36 33 32 33 34 35 39 41 40 40
10 10 8 8 8 9 10 11 12 15 16 13 12 12 12 12 14 21 24 16 11 13 13 14 14 14 14 14 15 16 18 18 19 20 20 20 19 17 19 19 17 16 15 15 14 14 14 13 15 15 14 13 11 9 9 10 10 8 7 9 9 9 9 9 11 13 14 19 24 24 25 25 21 21 26 28 31 37 37 33 32 33 35 36 38 39 41 40
10 9 9 7 7 9 10 10 13 16 14 11 12 11 11 14 18 22 23 17 12 13 14 14 15 15 15 16 16 16 17 18 18 20 20 20 19 18 19 19 19 17 15 15 15 14 14 14 15 16 14 12 10 10 10 10 10 8 8 10 10 9 9 8 8 11 13 17 19 19 21 22 17 17 23 25 27 32 34 32 32 33 34 36 36 38 41 40
10 9 9 7 7 9 9 12 16 14 11 10 11 11 13 20 23 22 21 17 13 15 15 14 15 16 16 16 16 16 17 17 17 18 21 20 19 19 20 20 20 19 16 15 16 14 13 14 15 15 14 11 10 12 11 10 10 9 9 10 10 9 9 9 9 10 14 16 14 13 16 18 16 15 19 22 23 27 30 31 32 33 33 35 37 37 40 41
10 10 9 8 8 9 10 13 14 10 8 9 9 11 17 23 22 20 21 14 12 17 18 17 17 17 17 19 18 17 17 18 16 17 20 21 20 20 21 21 21 21 18 16 17 15 13 15 16 15 13 12 12 12 11 11 11 11 11 10 11 11 11 12 13 13 15 15 11 10 12 15 14 12 15 18 19 23 28 29 31 35 34 34 37 38 37 40
11 10 10 9 10 11 12 13 10 8 7 8 9 13 20 23 20 20 18 13 16 22 21 19 20 19 18 18 19 18 18 18 17 17 19 21 22 21 21 20 20 21 20 17 17 15 13 14 15 15 14 13 13 12 12 12 12 11 11 12 13 15 16 17 15 14 14 12 10 10 11 12 11 10 12 15 16 19 26 29 29 33 35 34 36 37 35 38
12 11 10 12 14 15 14 11 9 9 7 8 11 14 18 21 21 21 18 18 26 28 24 22 20 19 19 19 20 19 18 18 18 17 19 21 23 22 21 21 21 21 20 19 19 16 15 14 15 16 14 13 12 12 12 12 11 11 12 13 14 16 20 20 16 15 14 11 10 11 11 10 9 9 10 13 14 17 24 29 28 30 34 34 36 35 34 36
13 12 12 14 17 17 15 12 11 10 9 9 12 14 19 19 17 20 25 30 32 28 25 25 22 20 21 21 21 20 20 19 18 18 19 21 23 24 23 22 21 21 22 22 20 18 17 15 14 15 14 13 12 11 12 12 11 11 10 11 13 14 18 19 16 14 13 11 12 12 10 8 8 9 9 9 12 16 22 27 27 28 31 32 34 34 32 34
14 13 14 18 21 20 17 14 12 11 13 13 12 14 16 15 15 25 35 38 34 28 26 24 24 24 23 22 22 23 23 21 19 19 19 20 22 23 23 22 22 22 22 23 21 19 18 15 14 15 15 13 12 11 12 12 13 12 10 11 12 12 14 16 14 12 12 12 13 12 9 6 6 8 9 9 11 14 20 25 26 26 27 29 31 31 29 31
15 15 17 22 23 22 20 18 15 16 17 15 13 13 15 17 26 37 42 39 35 32 27 23 24 26 25 26 26 26 25 23 21 20 19 20 22 23 23 23 24 24 23 23 22 21 20 18 15 15 16 14 14 13 12 13 14 13 11 10 10 10 11 13 13 12 13 14 14 13 9 7 6 6 7 8 9 12 18 23 25 26 26 27 29 29 29 30
17 17 21 25 24 23 24 23 21 20 19 18 17 17 18 23 31 36 38 36 33 32 30 28 28 30 33 34 33 30 28 25 24 22 20 21 22 24 25 24 24 24 23 23 23 22 21 20 18 16 16 16 15 14 13 13 14 14 12 10 10 11 11 12 15 15 14 14 11 10 9 8 7 6 6 6 7 9 13 16 20 24 27 27 28 29 29 29
19 20 24 26 23 23 26 25 25 26 25 24 22 20 23 26 30 32 33 34 31 31 31 31 31 34 38 41 38 34 30 28 27 25 22 21 23 25 25 25 25 24 24 25 25 24 22 22 22 18 16 17 16 16 15 14 14 14 13 11 12 13 12 13 16 16 15 14 11 8 8 8 8 7 7 6 6 7 9 12 15 21 26 27 27 29 30 30
26 24 25 25 23 24 25 24 27 32 35 35 32 32 34 33 32 32 33 33 32 30 30 30 33 37 38 39 40 36 33 32 31 28 26 25 26 25 24 25 26 25 25 26 26 25 23 23 24 21 17 17 17 15 16 15 15 14 14 14 14 14 13 13 13 12 13 15 13 10 9 8 7 6 6 6 7 7 8 10 12 16 22 25 26 27 29 31
32 28 27 25 23 24 25 26 31 36 40 42 42 42 42 36 33 33 33 33 33 31 29 30 37 43 39 37 39 37 36 36 33 32 31 29 27 27 25 25 26 26 27 27 27 26 25 24 25 24 20 19 17 15 15 16 16 15 15 16 15 15 14 15 14 12 12 14 14 12 10 10 9 7 6 6 7 7 6 8 10 12 16 22 25 26 28 31
32 29 28 26 25 27 28 32 40 41 37 39 43 45 42 36 34 35 33 35 34 32 31 31 36 43 42 39 37 36 37 37 35 33 33 31 30 30 28 26 27 28 29 28 28 28 27 26 26 25 23 20 18 16 15 17 17 15 14 15 16 15 15 17 18 16 12 12 13 12 12 11 9 7 6 6 6 6 6 7 9 10 12 17 22 25 27 30
29 28 28 29 30 31 32 38 47 49 45 47 48 45 41 38 36 35 35 38 38 36 35 31 30 35 40 41 40 38 39 39 38 37 36 35 34 32 30 29 28 29 31 31 30 30 29 29 28 26 24 22 20 19 17 17 17 16 14 14 15 14 14 16 18 18 14 11 11 11 11 12 10 8 7 6 6 5 5 6 7 9 11 15 19 22 26 29
31 31 32 33 35 35 39 46 53 55 55 56 51 47 46 45 43 43 43 41 40 42 44 40 35 34 40 46 46 41 40 41 40 41 42 39 36 33 31 31 30 31 33 35 34 31 30 31 31 29 26 23 22 21 20 19 18 18 16 14 14 14 15 15 15 16 16 13 11 10 11 11 10 9 8 8 7 6 5 5 6 7 9 12 16 20 24 28
32 34 36 36 38 40 46 52 55 57 57 54 49 51 55 53 50 51 51 47 45 48 54 54 50 45 43 46 48 43 41 43 43 44 44 42 39 36 33 32 34 35 35 36 36 33 31 32 32 32 31 28 25 24 22 19 18 19 18 17 16 16 16 16 14 14 16 16 13 12 11 12 11 10 9 8 7 7 6 6 6 6 7 9 13 18 23 27
34 39 40 37 40 46 51 53 55 58 60 55 50 53 56 57 58 56 50 50 51 50 53 57 58 55 48 42 42 43 43 45 48 49 46 43 41 39 36 34 35 36 35 35 35 33 34 35 34 34 34 31 28 27 23 20 18 19 19 18 17 17 16 17 16 16 17 17 15 13 12 12 12 10 8 8 7 7 7 7 7 6 7 9 12 16 20 24
38 44 41 36 42 50 53 55 57 60 61 59 57 58 58 58 62 57 49 52 55 51 50 56 58 58 56 49 43 43 44 44 48 51 50 47 45 43 40 37 36 36 36 35 33 33 37 38 36 38 40 36 34 34 28 22 20 19 18 18 18 18 17 17 17 17 19 18 14 13 13 13 13 11 9 8 8 8 8 8 8 8 8 9 12 16 19 21
42 47 43 41 48 51 50 53 57 58 59 61 63 63 61 60 61 58 54 57 61 57 56 63 66 63 64 62 55 49 49 48 49 51 53 52 49 45 42 40 39 39 38 36 34 35 39 38 36 39 42 39 38 36 30 26 25 22 19 18 18 19 19 18 17 17 18 18 15 13 13 13 13 12 10 9 8 8 8 8 9 10 9 9 11 15 18 19
45 47 48 50 54 54 52 51 55 59 61 62 63 64 65 65 65 64 61 58 59 61 64 71 74 70 67 68 65 59 54 51 51 54 56 55 52 48 45 43 42 41 39 37 36 37 40 40 37 36 36 35 35 35 32 29 28 25 23 21 19 19 19 19 19 18 18 18 17 15 14 13 13 12 10 9 9 8 8 9 10 10 9 9 10 12 13 15
50 49 52 53 52 52 53 53 57 63 63 61 64 67 67 67 68 69 67 63 62 66 71 74 73 69 66 67 68 65 60 55 57 64 63 56 51 47 46 47 46 45 43 40 39 37 39 42 40 35 33 32 32 33 33 32 30 28 26 23 21 20 19 19 19 18 18 18 17 15 16 15 13 12 11 10 9 9 8 9 10 9 9 9 10 9 9 10
59 57 56 57 53 51 54 58 61 62 61 62 66 66 64 65 68 68 67 68 69 70 73 75 72 67 66 68 68 66 63 59 61 67 65 58 53 50 50 51 52 50 46 44 42 39 40 43 40 35 34 33 31 31 31 31 32 30 29 26 23 21 20 20 20 19 18 19 16 15 16 15 14 13 12 11 10 9 9 10 9 8 9 9 9 8 9 9
67 64 62 62 58 52 54 59 60 60 62 64 65 64 63 64 68 68 66 69 72 73 72 72 71 66 64 69 73 71 66 60 57 58 59 57 56 55 54 53 53 52 50 48 46 44 42 40 37 37 37 35 32 31 30 30 30 29 28 27 25 23 21 20 20 19 18 18 17 17 17 15 14 14 13 13 11 11 11 10 10 9 8 8 8 8 8 8
70 68 66 65 61 56 57 57 57 60 64 63 61 64 66 66 67 69 71 71 71 74 74 72 72 70 65 69 75 76 71 66 60 56 55 54 53 51 50 49 48 50 53 52 50 47 45 41 38 38 39 37 35 32 30 30 31 29 26 25 24 24 23 22 21 20 19 18 17 17 16 15 15 14 14 15 14 12 11 10 10 10 9 9 9 8 8 8